Über Al-Farabi 2
Group: 3 satellites
Beschreibung wird geladen...
Live-Position
3D-Globus wird geladen...
Nächste Überflüge
Höhenverlauf
Altitude vs Time
uPlot chart will show altitude changes over time
Zweizeiliger Elementsatz
1 43805U 18099AZ 26061.14311907 .00143670 00000-0 14129-2 0 9998
2 43805 97.4127 136.5703 0004478 232.2636 127.8218 15.65536079398178
Epoch: 2. März 2026 •
Age: 42 hours
Aktueller Status
Höhe 375.8 km
Geschwindigkeit 7.68 km/s
Subsatellitenpunkt -1.97°S,
70.41°E
Startdatum 3. Dez. 2018
Alter 7.2 years
Typ other
Technische Details
Klassifizierung Payload
Masse 4.00 kg
Trockenmasse 4.00 kg
Gesamtmasse 4.00 kg
Länge 0.30 m
Durchmesser 0.10 m
Spannweite 0.30 m
Form Box
Hersteller KAZNU
Bus-Typ Cubesat 3U
Phasenstatus In Orbit
Besitzer/Staat KAZNU/KZ
Große Konstellationen
Loading constellations...